#datetime,building,power
2023-12-08T00:00:00,axn,27.50
2023-12-08T00:01:00,axn,27.45
2023-12-08T00:02:00,axn,27.36
2023-12-08T00:03:00,axn,27.64
2023-12-08T00:04:00,axn,27.27
2023-12-08T00:05:00,axn,27.60
2023-12-08T00:06:00,axn,27.56
2023-12-08T00:07:00,axn,27.00
2023-12-08T00:08:00,axn,27.25
2023-12-08T00:09:00,axn,27.11
2023-12-08T00:10:00,axn,27.30
2023-12-08T00:11:00,axn,27.22
2023-12-08T00:12:00,axn,27.06
2023-12-08T00:13:00,axn,27.16
2023-12-08T00:14:00,axn,28.06
2023-12-08T00:15:00,axn,27.44
2023-12-08T00:16:00,axn,27.13
2023-12-08T00:17:00,axn,27.13
2023-12-08T00:18:00,axn,27.33
2023-12-08T00:19:00,axn,27.18
2023-12-08T00:20:00,axn,27.39
2023-12-08T00:21:00,axn,27.47
2023-12-08T00:22:00,axn,27.48
2023-12-08T00:23:00,axn,27.55
2023-12-08T00:24:00,axn,27.92
2023-12-08T00:25:00,axn,27.50
2023-12-08T00:26:00,axn,27.86
2023-12-08T00:27:00,axn,27.44
2023-12-08T00:28:00,axn,27.37
2023-12-08T00:29:00,axn,27.39
2023-12-08T00:30:00,axn,27.54
2023-12-08T00:31:00,axn,27.34
2023-12-08T00:32:00,axn,27.36
2023-12-08T00:33:00,axn,27.18
2023-12-08T00:34:00,axn,27.43
2023-12-08T00:35:00,axn,27.48
2023-12-08T00:36:00,axn,27.22
2023-12-08T00:37:00,axn,27.56
2023-12-08T00:38:00,axn,27.45
2023-12-08T00:39:00,axn,27.19
2023-12-08T00:40:00,axn,27.47
2023-12-08T00:41:00,axn,27.63
2023-12-08T00:42:00,axn,27.58
2023-12-08T00:43:00,axn,27.70
2023-12-08T00:44:00,axn,30.97
2023-12-08T00:45:00,axn,27.03
2023-12-08T00:46:00,axn,27.18
2023-12-08T00:47:00,axn,27.09
2023-12-08T00:48:00,axn,26.91
2023-12-08T00:49:00,axn,27.31
2023-12-08T00:50:00,axn,27.29
2023-12-08T00:51:00,axn,27.45
2023-12-08T00:52:00,axn,27.47
2023-12-08T00:53:00,axn,27.19
2023-12-08T00:54:00,axn,27.26
2023-12-08T00:55:00,axn,27.38
2023-12-08T00:56:00,axn,27.37
2023-12-08T00:57:00,axn,27.43
2023-12-08T00:58:00,axn,27.18
2023-12-08T00:59:00,axn,27.28
2023-12-08T01:00:00,axn,27.48
2023-12-08T01:01:00,axn,27.47
2023-12-08T01:02:00,axn,27.57
2023-12-08T01:03:00,axn,27.47
2023-12-08T01:04:00,axn,27.58
2023-12-08T01:05:00,axn,27.58
2023-12-08T01:06:00,axn,27.71
2023-12-08T01:07:00,axn,27.92
2023-12-08T01:08:00,axn,27.64
2023-12-08T01:09:00,axn,27.68
2023-12-08T01:10:00,axn,27.76
2023-12-08T01:11:00,axn,27.80
2023-12-08T01:12:00,axn,27.96
2023-12-08T01:13:00,axn,27.92
2023-12-08T01:14:00,axn,27.68
2023-12-08T01:15:00,axn,27.43
2023-12-08T01:16:00,axn,27.45
2023-12-08T01:17:00,axn,26.92
2023-12-08T01:18:00,axn,26.79
2023-12-08T01:19:00,axn,26.95
2023-12-08T01:20:00,axn,27.06
2023-12-08T01:21:00,axn,27.17
2023-12-08T01:22:00,axn,27.91
2023-12-08T01:23:00,axn,27.13
2023-12-08T01:24:00,axn,27.07
2023-12-08T01:25:00,axn,27.39
2023-12-08T01:26:00,axn,27.29
2023-12-08T01:27:00,axn,27.63
2023-12-08T01:28:00,axn,27.18
2023-12-08T01:29:00,axn,27.21
2023-12-08T01:30:00,axn,27.12
2023-12-08T01:31:00,axn,27.24
2023-12-08T01:32:00,axn,27.54
2023-12-08T01:33:00,axn,37.98
2023-12-08T01:34:00,axn,37.91
2023-12-08T01:35:00,axn,37.30
2023-12-08T01:36:00,axn,37.25
2023-12-08T01:37:00,axn,37.65
2023-12-08T01:38:00,axn,27.18
2023-12-08T01:39:00,axn,26.95
2023-12-08T01:40:00,axn,27.19
2023-12-08T01:41:00,axn,27.07
2023-12-08T01:42:00,axn,27.40
2023-12-08T01:43:00,axn,27.31
2023-12-08T01:44:00,axn,27.23
2023-12-08T01:45:00,axn,26.92
2023-12-08T01:46:00,axn,26.93
2023-12-08T01:47:00,axn,27.12
2023-12-08T01:48:00,axn,27.16
2023-12-08T01:49:00,axn,27.05
2023-12-08T01:50:00,axn,27.53
2023-12-08T01:51:00,axn,26.75
2023-12-08T01:52:00,axn,26.71
2023-12-08T01:53:00,axn,26.68
2023-12-08T01:54:00,axn,26.57
2023-12-08T01:55:00,axn,26.70
2023-12-08T01:56:00,axn,26.63
2023-12-08T01:57:00,axn,26.80
2023-12-08T01:58:00,axn,27.19
2023-12-08T01:59:00,axn,26.88
2023-12-08T02:00:00,axn,26.74
2023-12-08T02:01:00,axn,27.12
2023-12-08T02:02:00,axn,27.03
2023-12-08T02:03:00,axn,26.94
2023-12-08T02:04:00,axn,26.96
2023-12-08T02:05:00,axn,26.88
2023-12-08T02:06:00,axn,27.24
2023-12-08T02:07:00,axn,27.34
2023-12-08T02:08:00,axn,27.11
2023-12-08T02:09:00,axn,26.87
2023-12-08T02:10:00,axn,27.20
2023-12-08T02:11:00,axn,27.32
2023-12-08T02:12:00,axn,27.28
2023-12-08T02:13:00,axn,26.98
2023-12-08T02:14:00,axn,27.15
2023-12-08T02:15:00,axn,27.23
2023-12-08T02:16:00,axn,26.91
2023-12-08T02:17:00,axn,27.12
2023-12-08T02:18:00,axn,27.14
2023-12-08T02:19:00,axn,27.00
2023-12-08T02:20:00,axn,27.41
2023-12-08T02:21:00,axn,27.22
2023-12-08T02:22:00,axn,27.80
2023-12-08T02:23:00,axn,27.25
2023-12-08T02:24:00,axn,27.21
2023-12-08T02:25:00,axn,27.31
2023-12-08T02:26:00,axn,27.19
2023-12-08T02:27:00,axn,27.18
2023-12-08T02:28:00,axn,27.07
2023-12-08T02:29:00,axn,27.08
2023-12-08T02:30:00,axn,27.86
2023-12-08T02:31:00,axn,28.18
2023-12-08T02:32:00,axn,27.27
2023-12-08T02:33:00,axn,26.85
2023-12-08T02:34:00,axn,26.31
2023-12-08T02:35:00,axn,26.53
2023-12-08T02:36:00,axn,26.48
2023-12-08T02:37:00,axn,26.15
2023-12-08T02:38:00,axn,26.14
2023-12-08T02:39:00,axn,26.19
2023-12-08T02:40:00,axn,26.23
2023-12-08T02:41:00,axn,26.29
2023-12-08T02:42:00,axn,26.33
2023-12-08T02:43:00,axn,26.24
2023-12-08T02:44:00,axn,26.08
2023-12-08T02:45:00,axn,25.89
2023-12-08T02:46:00,axn,25.92
2023-12-08T02:47:00,axn,26.23
2023-12-08T02:48:00,axn,26.41
2023-12-08T02:49:00,axn,26.39
2023-12-08T02:50:00,axn,26.34
2023-12-08T02:51:00,axn,26.39
2023-12-08T02:52:00,axn,26.39
2023-12-08T02:53:00,axn,26.27
2023-12-08T02:54:00,axn,26.39
2023-12-08T02:55:00,axn,26.42
2023-12-08T02:56:00,axn,26.25
2023-12-08T02:57:00,axn,26.17
2023-12-08T02:58:00,axn,26.19
2023-12-08T02:59:00,axn,26.21
2023-12-08T03:00:00,axn,26.10
2023-12-08T03:01:00,axn,26.49
2023-12-08T03:02:00,axn,26.16
2023-12-08T03:03:00,axn,26.03
2023-12-08T03:04:00,axn,25.97
2023-12-08T03:05:00,axn,26.05
2023-12-08T03:06:00,axn,25.82
2023-12-08T03:07:00,axn,25.96
2023-12-08T03:08:00,axn,26.10
2023-12-08T03:09:00,axn,28.61
2023-12-08T03:10:00,axn,27.74
2023-12-08T03:11:00,axn,26.04
2023-12-08T03:12:00,axn,26.12
2023-12-08T03:13:00,axn,25.76
2023-12-08T03:14:00,axn,25.66
2023-12-08T03:15:00,axn,25.67
2023-12-08T03:16:00,axn,26.06
2023-12-08T03:17:00,axn,25.60
2023-12-08T03:18:00,axn,25.51
2023-12-08T03:19:00,axn,25.64
2023-12-08T03:20:00,axn,25.72
2023-12-08T03:21:00,axn,25.64
2023-12-08T03:22:00,axn,25.82
2023-12-08T03:23:00,axn,26.17
2023-12-08T03:24:00,axn,25.58
2023-12-08T03:25:00,axn,25.64
2023-12-08T03:26:00,axn,25.81
2023-12-08T03:27:00,axn,25.76
2023-12-08T03:28:00,axn,25.69
2023-12-08T03:29:00,axn,25.70
2023-12-08T03:30:00,axn,26.61
2023-12-08T03:31:00,axn,25.78
2023-12-08T03:32:00,axn,25.46
2023-12-08T03:33:00,axn,31.37
2023-12-08T03:34:00,axn,31.55
2023-12-08T03:35:00,axn,31.30
2023-12-08T03:36:00,axn,25.83
2023-12-08T03:37:00,axn,25.77
2023-12-08T03:38:00,axn,25.62
2023-12-08T03:39:00,axn,25.72
2023-12-08T03:40:00,axn,25.81
2023-12-08T03:41:00,axn,26.54
2023-12-08T03:42:00,axn,26.61
2023-12-08T03:43:00,axn,25.73
2023-12-08T03:44:00,axn,25.72
2023-12-08T03:45:00,axn,25.82
2023-12-08T03:46:00,axn,25.51
2023-12-08T03:47:00,axn,25.65
2023-12-08T03:48:00,axn,25.54
2023-12-08T03:49:00,axn,25.51
2023-12-08T03:50:00,axn,25.75
2023-12-08T03:51:00,axn,25.89
2023-12-08T03:52:00,axn,25.91
2023-12-08T03:53:00,axn,25.50
2023-12-08T03:54:00,axn,25.29
2023-12-08T03:55:00,axn,25.39
2023-12-08T03:56:00,axn,40.32
2023-12-08T03:57:00,axn,39.87
2023-12-08T03:58:00,axn,39.66
2023-12-08T03:59:00,axn,39.52
2023-12-08T04:00:00,axn,29.68
2023-12-08T04:01:00,axn,25.12
2023-12-08T04:02:00,axn,25.27
2023-12-08T04:03:00,axn,25.19
2023-12-08T04:04:00,axn,25.03
2023-12-08T04:05:00,axn,25.20
2023-12-08T04:06:00,axn,25.39
2023-12-08T04:07:00,axn,25.35
2023-12-08T04:08:00,axn,25.36
2023-12-08T04:09:00,axn,25.71
2023-12-08T04:10:00,axn,26.38
2023-12-08T04:11:00,axn,41.97
2023-12-08T04:12:00,axn,25.44
2023-12-08T04:13:00,axn,25.18
2023-12-08T04:14:00,axn,25.19
2023-12-08T04:15:00,axn,25.19
2023-12-08T04:16:00,axn,25.47
2023-12-08T04:17:00,axn,25.45
2023-12-08T04:18:00,axn,25.78
2023-12-08T04:19:00,axn,25.80
2023-12-08T04:20:00,axn,25.85
2023-12-08T04:21:00,axn,25.73
2023-12-08T04:22:00,axn,25.87
2023-12-08T04:23:00,axn,25.78
2023-12-08T04:24:00,axn,25.92
2023-12-08T04:25:00,axn,25.47
2023-12-08T04:26:00,axn,25.63
2023-12-08T04:27:00,axn,25.60
2023-12-08T04:28:00,axn,25.45
2023-12-08T04:29:00,axn,25.59
2023-12-08T04:30:00,axn,25.74
2023-12-08T04:31:00,axn,26.13
2023-12-08T04:32:00,axn,26.16
2023-12-08T04:33:00,axn,25.80
2023-12-08T04:34:00,axn,26.04
2023-12-08T04:35:00,axn,25.58
2023-12-08T04:36:00,axn,25.52
2023-12-08T04:37:00,axn,25.56
2023-12-08T04:38:00,axn,25.85
2023-12-08T04:39:00,axn,25.98
2023-12-08T04:40:00,axn,26.30
2023-12-08T04:41:00,axn,26.47
2023-12-08T04:42:00,axn,27.51
2023-12-08T04:43:00,axn,27.80
2023-12-08T04:44:00,axn,28.00
2023-12-08T04:45:00,axn,28.09
2023-12-08T04:46:00,axn,40.45
2023-12-08T04:47:00,axn,28.36
2023-12-08T04:48:00,axn,28.54
2023-12-08T04:49:00,axn,28.08
2023-12-08T04:50:00,axn,28.35
2023-12-08T04:51:00,axn,43.30
2023-12-08T04:52:00,axn,29.18
2023-12-08T04:53:00,axn,29.33
2023-12-08T04:54:00,axn,28.19
2023-12-08T04:55:00,axn,45.37
2023-12-08T04:56:00,axn,28.06
2023-12-08T04:57:00,axn,28.14
2023-12-08T04:58:00,axn,28.04
2023-12-08T04:59:00,axn,28.05
2023-12-08T05:00:00,axn,28.35
2023-12-08T05:01:00,axn,27.29
2023-12-08T05:02:00,axn,30.23
2023-12-08T05:03:00,axn,33.13
2023-12-08T05:04:00,axn,36.12
2023-12-08T05:05:00,axn,32.90
2023-12-08T05:06:00,axn,32.07
2023-12-08T05:07:00,axn,33.80
2023-12-08T05:08:00,axn,35.22
2023-12-08T05:09:00,axn,34.81
2023-12-08T05:10:00,axn,33.75
2023-12-08T05:11:00,axn,32.17
2023-12-08T05:12:00,axn,31.96
2023-12-08T05:13:00,axn,31.34
2023-12-08T05:14:00,axn,31.46
2023-12-08T05:15:00,axn,33.84
2023-12-08T05:16:00,axn,34.39
2023-12-08T05:17:00,axn,34.65
2023-12-08T05:18:00,axn,35.27
2023-12-08T05:19:00,axn,36.44
2023-12-08T05:20:00,axn,37.32
2023-12-08T05:21:00,axn,38.35
2023-12-08T05:22:00,axn,38.15
2023-12-08T05:23:00,axn,37.03
2023-12-08T05:24:00,axn,36.77
2023-12-08T05:25:00,axn,36.15
2023-12-08T05:26:00,axn,38.53
2023-12-08T05:27:00,axn,37.94
2023-12-08T05:28:00,axn,38.24
2023-12-08T05:29:00,axn,37.73
2023-12-08T05:30:00,axn,38.95
2023-12-08T05:31:00,axn,40.72
2023-12-08T05:32:00,axn,41.27
2023-12-08T05:33:00,axn,41.25
2023-12-08T05:34:00,axn,41.39
2023-12-08T05:35:00,axn,47.16
2023-12-08T05:36:00,axn,47.62
2023-12-08T05:37:00,axn,47.52
2023-12-08T05:38:00,axn,41.02
2023-12-08T05:39:00,axn,42.18
2023-12-08T05:40:00,axn,43.12
2023-12-08T05:41:00,axn,40.84
2023-12-08T05:42:00,axn,40.01
2023-12-08T05:43:00,axn,41.44
2023-12-08T05:44:00,axn,41.71
2023-12-08T05:45:00,axn,42.27
2023-12-08T05:46:00,axn,42.36
2023-12-08T05:47:00,axn,42.51
2023-12-08T05:48:00,axn,42.25
2023-12-08T05:49:00,axn,41.56
2023-12-08T05:50:00,axn,41.25
2023-12-08T05:51:00,axn,45.80
2023-12-08T05:52:00,axn,49.38
2023-12-08T05:53:00,axn,49.42
2023-12-08T05:54:00,axn,42.05
2023-12-08T05:55:00,axn,42.60
2023-12-08T05:56:00,axn,42.25
2023-12-08T05:57:00,axn,42.29
2023-12-08T05:58:00,axn,42.25
2023-12-08T05:59:00,axn,52.34
2023-12-08T06:00:00,axn,52.20
2023-12-08T06:01:00,axn,52.20
2023-12-08T06:02:00,axn,52.60
2023-12-08T06:03:00,axn,42.23
2023-12-08T06:04:00,axn,42.72
2023-12-08T06:05:00,axn,42.77
2023-12-08T06:06:00,axn,81.09
2023-12-08T06:07:00,axn,50.13
2023-12-08T06:08:00,axn,49.78
2023-12-08T06:09:00,axn,49.64
2023-12-08T06:10:00,axn,49.73
2023-12-08T06:11:00,axn,49.58
2023-12-08T06:12:00,axn,49.24
2023-12-08T06:13:00,axn,49.21
2023-12-08T06:14:00,axn,49.12
2023-12-08T06:15:00,axn,49.41
2023-12-08T06:16:00,axn,49.16
2023-12-08T06:17:00,axn,48.89
2023-12-08T06:18:00,axn,48.81
2023-12-08T06:19:00,axn,48.97
2023-12-08T06:20:00,axn,49.18
2023-12-08T06:21:00,axn,49.40
2023-12-08T06:22:00,axn,49.17
2023-12-08T06:23:00,axn,48.59
2023-12-08T06:24:00,axn,48.17
2023-12-08T06:25:00,axn,47.74
2023-12-08T06:26:00,axn,47.87
2023-12-08T06:27:00,axn,65.63
2023-12-08T06:28:00,axn,48.86
2023-12-08T06:29:00,axn,48.81
2023-12-08T06:30:00,axn,47.40
2023-12-08T06:31:00,axn,47.57
2023-12-08T06:32:00,axn,47.71
2023-12-08T06:33:00,axn,47.19
2023-12-08T06:34:00,axn,46.25
2023-12-08T06:35:00,axn,44.98
2023-12-08T06:36:00,axn,45.01
2023-12-08T06:37:00,axn,44.82
2023-12-08T06:38:00,axn,44.51
2023-12-08T06:39:00,axn,45.07
2023-12-08T06:40:00,axn,36.91
2023-12-08T06:41:00,axn,36.92
2023-12-08T06:42:00,axn,36.88
2023-12-08T06:43:00,axn,46.77
2023-12-08T06:44:00,axn,36.61
2023-12-08T06:45:00,axn,36.60
2023-12-08T06:46:00,axn,36.71
2023-12-08T06:47:00,axn,36.91
2023-12-08T06:48:00,axn,36.39
2023-12-08T06:49:00,axn,37.25
2023-12-08T06:50:00,axn,37.12
2023-12-08T06:51:00,axn,37.47
2023-12-08T06:52:00,axn,37.52
2023-12-08T06:53:00,axn,37.52
2023-12-08T06:54:00,axn,37.86
2023-12-08T06:55:00,axn,37.32
2023-12-08T06:56:00,axn,37.75
2023-12-08T06:57:00,axn,35.82
2023-12-08T06:58:00,axn,35.71
2023-12-08T06:59:00,axn,36.10
2023-12-08T07:00:00,axn,35.70
2023-12-08T07:01:00,axn,33.75
2023-12-08T07:02:00,axn,34.48
2023-12-08T07:03:00,axn,37.76
2023-12-08T07:04:00,axn,38.04
2023-12-08T07:05:00,axn,36.74
2023-12-08T07:06:00,axn,38.49
2023-12-08T07:07:00,axn,35.55
2023-12-08T07:08:00,axn,36.54
2023-12-08T07:09:00,axn,35.59
2023-12-08T07:10:00,axn,38.45
2023-12-08T07:11:00,axn,38.05
2023-12-08T07:12:00,axn,37.70
2023-12-08T07:13:00,axn,37.52
2023-12-08T07:14:00,axn,36.06
2023-12-08T07:15:00,axn,41.72
2023-12-08T07:16:00,axn,37.22
2023-12-08T07:17:00,axn,36.14
2023-12-08T07:18:00,axn,53.58
2023-12-08T07:19:00,axn,36.28
2023-12-08T07:20:00,axn,36.04
2023-12-08T07:21:00,axn,36.70
2023-12-08T07:22:00,axn,36.07
2023-12-08T07:23:00,axn,35.92
2023-12-08T07:24:00,axn,37.56
2023-12-08T07:25:00,axn,36.43
2023-12-08T07:26:00,axn,38.94
2023-12-08T07:27:00,axn,37.32
2023-12-08T07:28:00,axn,36.60
2023-12-08T07:29:00,axn,37.03
2023-12-08T07:30:00,axn,38.34
2023-12-08T07:31:00,axn,38.32
2023-12-08T07:32:00,axn,38.39
2023-12-08T07:33:00,axn,38.21
2023-12-08T07:34:00,axn,39.33
2023-12-08T07:35:00,axn,36.66
2023-12-08T07:36:00,axn,35.81
2023-12-08T07:37:00,axn,36.54
2023-12-08T07:38:00,axn,37.88
2023-12-08T07:39:00,axn,36.26
2023-12-08T07:40:00,axn,37.29
2023-12-08T07:41:00,axn,36.67
2023-12-08T07:42:00,axn,36.90
2023-12-08T07:43:00,axn,36.12
2023-12-08T07:44:00,axn,38.38
2023-12-08T07:45:00,axn,38.25
2023-12-08T07:46:00,axn,36.75
2023-12-08T07:47:00,axn,40.55
2023-12-08T07:48:00,axn,42.78
2023-12-08T07:49:00,axn,42.41
2023-12-08T07:50:00,axn,41.50
2023-12-08T07:51:00,axn,42.92
2023-12-08T07:52:00,axn,42.37
2023-12-08T07:53:00,axn,40.85
2023-12-08T07:54:00,axn,42.48
2023-12-08T07:55:00,axn,41.04
2023-12-08T07:56:00,axn,40.46
2023-12-08T07:57:00,axn,41.09
2023-12-08T07:58:00,axn,42.83
2023-12-08T07:59:00,axn,41.67
2023-12-08T08:00:00,axn,40.73
2023-12-08T08:01:00,axn,42.77
2023-12-08T08:02:00,axn,44.50
2023-12-08T08:03:00,axn,44.71
2023-12-08T08:04:00,axn,45.41
2023-12-08T08:05:00,axn,45.46
2023-12-08T08:06:00,axn,45.64
2023-12-08T08:07:00,axn,47.10
2023-12-08T08:08:00,axn,45.70
2023-12-08T08:09:00,axn,45.73
2023-12-08T08:10:00,axn,45.09
2023-12-08T08:11:00,axn,45.90
2023-12-08T08:12:00,axn,45.03
2023-12-08T08:13:00,axn,44.83
2023-12-08T08:14:00,axn,44.28
2023-12-08T08:15:00,axn,45.20
2023-12-08T08:16:00,axn,43.30
2023-12-08T08:17:00,axn,43.80
2023-12-08T08:18:00,axn,43.76
2023-12-08T08:19:00,axn,45.36
2023-12-08T08:20:00,axn,43.42
2023-12-08T08:21:00,axn,44.73
2023-12-08T08:22:00,axn,45.31
2023-12-08T08:23:00,axn,45.33
2023-12-08T08:24:00,axn,45.26
2023-12-08T08:25:00,axn,45.03
2023-12-08T08:26:00,axn,43.67
2023-12-08T08:27:00,axn,45.82
2023-12-08T08:28:00,axn,44.43
2023-12-08T08:29:00,axn,60.51
2023-12-08T08:30:00,axn,61.39
2023-12-08T08:31:00,axn,61.12
2023-12-08T08:32:00,axn,60.97
2023-12-08T08:33:00,axn,61.72
2023-12-08T08:34:00,axn,46.80
2023-12-08T08:35:00,axn,46.13
2023-12-08T08:36:00,axn,46.72
2023-12-08T08:37:00,axn,47.76
2023-12-08T08:38:00,axn,48.63
2023-12-08T08:39:00,axn,45.63
2023-12-08T08:40:00,axn,46.12
2023-12-08T08:41:00,axn,47.37
2023-12-08T08:42:00,axn,47.72
2023-12-08T08:43:00,axn,45.71
2023-12-08T08:44:00,axn,47.89
2023-12-08T08:45:00,axn,48.03
2023-12-08T08:46:00,axn,48.31
2023-12-08T08:47:00,axn,45.51
2023-12-08T08:48:00,axn,50.60
2023-12-08T08:49:00,axn,50.73
2023-12-08T08:50:00,axn,46.98
2023-12-08T08:51:00,axn,46.70
2023-12-08T08:52:00,axn,47.30
2023-12-08T08:53:00,axn,48.26
2023-12-08T08:54:00,axn,48.74
2023-12-08T08:55:00,axn,48.95
2023-12-08T08:56:00,axn,48.98
2023-12-08T08:57:00,axn,47.72
2023-12-08T08:58:00,axn,47.25
2023-12-08T08:59:00,axn,47.04
2023-12-08T09:00:00,axn,47.57
2023-12-08T09:01:00,axn,45.82
2023-12-08T09:02:00,axn,45.89
2023-12-08T09:03:00,axn,45.85
2023-12-08T09:04:00,axn,45.55
2023-12-08T09:05:00,axn,45.37
2023-12-08T09:06:00,axn,47.48
2023-12-08T09:07:00,axn,46.18
2023-12-08T09:08:00,axn,46.43
2023-12-08T09:09:00,axn,45.75
2023-12-08T09:10:00,axn,45.69
2023-12-08T09:11:00,axn,46.07
2023-12-08T09:12:00,axn,46.44
2023-12-08T09:13:00,axn,45.53
2023-12-08T09:14:00,axn,46.15
2023-12-08T09:15:00,axn,45.40
2023-12-08T09:16:00,axn,46.92
2023-12-08T09:17:00,axn,45.83
2023-12-08T09:18:00,axn,48.39
2023-12-08T09:19:00,axn,48.94
2023-12-08T09:20:00,axn,48.40
2023-12-08T09:21:00,axn,48.00
2023-12-08T09:22:00,axn,48.79
2023-12-08T09:23:00,axn,45.96
2023-12-08T09:24:00,axn,47.70
2023-12-08T09:25:00,axn,46.96
2023-12-08T09:26:00,axn,47.61
2023-12-08T09:27:00,axn,48.47
2023-12-08T09:28:00,axn,50.65
2023-12-08T09:29:00,axn,50.56
2023-12-08T09:30:00,axn,50.50
2023-12-08T09:31:00,axn,50.84
2023-12-08T09:32:00,axn,49.34
2023-12-08T09:33:00,axn,49.79
2023-12-08T09:34:00,axn,49.16
2023-12-08T09:35:00,axn,49.36
2023-12-08T09:36:00,axn,49.91
2023-12-08T09:37:00,axn,48.56
2023-12-08T09:38:00,axn,48.55
2023-12-08T09:39:00,axn,50.76
2023-12-08T09:40:00,axn,50.04
2023-12-08T09:41:00,axn,51.37
2023-12-08T09:42:00,axn,50.23
2023-12-08T09:43:00,axn,49.05
2023-12-08T09:44:00,axn,49.79
2023-12-08T09:45:00,axn,51.72
2023-12-08T09:46:00,axn,50.55
2023-12-08T09:47:00,axn,50.46
2023-12-08T09:48:00,axn,50.20
2023-12-08T09:49:00,axn,51.69
2023-12-08T09:50:00,axn,50.24
2023-12-08T09:51:00,axn,51.63
2023-12-08T09:52:00,axn,51.29
2023-12-08T09:53:00,axn,61.60
2023-12-08T09:54:00,axn,61.04
2023-12-08T09:55:00,axn,59.35
2023-12-08T09:56:00,axn,61.64
2023-12-08T09:57:00,axn,50.69
2023-12-08T09:58:00,axn,50.74
2023-12-08T09:59:00,axn,48.88
2023-12-08T10:00:00,axn,48.82
2023-12-08T10:01:00,axn,50.84
2023-12-08T10:02:00,axn,51.83
2023-12-08T10:03:00,axn,51.42
2023-12-08T10:04:00,axn,51.22
2023-12-08T10:05:00,axn,51.25
2023-12-08T10:06:00,axn,51.81
2023-12-08T10:07:00,axn,50.48
2023-12-08T10:08:00,axn,49.18
2023-12-08T10:09:00,axn,48.38
2023-12-08T10:10:00,axn,48.59
2023-12-08T10:11:00,axn,50.42
2023-12-08T10:12:00,axn,48.60
2023-12-08T10:13:00,axn,48.75
2023-12-08T10:14:00,axn,50.51
2023-12-08T10:15:00,axn,51.19
2023-12-08T10:16:00,axn,49.47
2023-12-08T10:17:00,axn,52.50
2023-12-08T10:18:00,axn,53.35
2023-12-08T10:19:00,axn,50.63
2023-12-08T10:20:00,axn,50.15
2023-12-08T10:21:00,axn,51.07
2023-12-08T10:22:00,axn,52.81
2023-12-08T10:23:00,axn,52.37
2023-12-08T10:24:00,axn,51.32
2023-12-08T10:25:00,axn,52.01
2023-12-08T10:26:00,axn,50.59
2023-12-08T10:27:00,axn,52.38
2023-12-08T10:28:00,axn,52.33
2023-12-08T10:29:00,axn,51.91
2023-12-08T10:30:00,axn,50.58
2023-12-08T10:31:00,axn,52.13
2023-12-08T10:32:00,axn,52.15
2023-12-08T10:33:00,axn,50.40
2023-12-08T10:34:00,axn,50.87
2023-12-08T10:35:00,axn,51.42
2023-12-08T10:36:00,axn,51.12
2023-12-08T10:37:00,axn,49.70
2023-12-08T10:38:00,axn,50.99
2023-12-08T10:39:00,axn,52.54
2023-12-08T10:40:00,axn,52.29
2023-12-08T10:41:00,axn,50.86
2023-12-08T10:42:00,axn,50.01
2023-12-08T10:43:00,axn,51.26
2023-12-08T10:44:00,axn,52.87
2023-12-08T10:45:00,axn,52.06
2023-12-08T10:46:00,axn,52.15
2023-12-08T10:47:00,axn,49.98
2023-12-08T10:48:00,axn,51.82
2023-12-08T10:49:00,axn,53.39
2023-12-08T10:50:00,axn,50.74
2023-12-08T10:51:00,axn,51.86
2023-12-08T10:52:00,axn,54.02
2023-12-08T10:53:00,axn,52.25
2023-12-08T10:54:00,axn,51.58
2023-12-08T10:55:00,axn,53.25
2023-12-08T10:56:00,axn,64.54
2023-12-08T10:57:00,axn,50.05
2023-12-08T10:58:00,axn,52.29
2023-12-08T10:59:00,axn,52.40
2023-12-08T11:00:00,axn,50.04
2023-12-08T11:01:00,axn,51.52
2023-12-08T11:02:00,axn,52.79
2023-12-08T11:03:00,axn,52.06
2023-12-08T11:04:00,axn,51.78
2023-12-08T11:05:00,axn,51.69
2023-12-08T11:06:00,axn,51.68
2023-12-08T11:07:00,axn,53.10
2023-12-08T11:08:00,axn,49.92
2023-12-08T11:09:00,axn,50.78
2023-12-08T11:10:00,axn,51.76
2023-12-08T11:11:00,axn,52.14
2023-12-08T11:12:00,axn,51.59
2023-12-08T11:13:00,axn,52.54
2023-12-08T11:14:00,axn,50.25
2023-12-08T11:15:00,axn,50.67
2023-12-08T11:16:00,axn,51.00
2023-12-08T11:17:00,axn,49.56
2023-12-08T11:18:00,axn,50.06
2023-12-08T11:19:00,axn,49.94
2023-12-08T11:20:00,axn,49.94
2023-12-08T11:21:00,axn,53.01
2023-12-08T11:22:00,axn,52.61
2023-12-08T11:23:00,axn,49.96
2023-12-08T11:24:00,axn,50.79
2023-12-08T11:25:00,axn,50.00
2023-12-08T11:26:00,axn,50.62
2023-12-08T11:27:00,axn,50.35
2023-12-08T11:28:00,axn,50.50
2023-12-08T11:29:00,axn,50.21
2023-12-08T11:30:00,axn,50.33
2023-12-08T11:31:00,axn,50.51
2023-12-08T11:32:00,axn,51.27
2023-12-08T11:33:00,axn,51.15
2023-12-08T11:34:00,axn,49.98
2023-12-08T11:35:00,axn,50.14
2023-12-08T11:36:00,axn,52.27
2023-12-08T11:37:00,axn,50.34
2023-12-08T11:38:00,axn,51.90
2023-12-08T11:39:00,axn,49.80
2023-12-08T11:40:00,axn,52.23
2023-12-08T11:41:00,axn,49.57
2023-12-08T11:42:00,axn,50.77
2023-12-08T11:43:00,axn,51.60
2023-12-08T11:44:00,axn,51.78
2023-12-08T11:45:00,axn,51.78
2023-12-08T11:46:00,axn,51.66
2023-12-08T11:47:00,axn,49.95
2023-12-08T11:48:00,axn,51.99
2023-12-08T11:49:00,axn,55.78
2023-12-08T11:50:00,axn,56.25
2023-12-08T11:51:00,axn,57.72
2023-12-08T11:52:00,axn,52.42
2023-12-08T11:53:00,axn,51.69
2023-12-08T11:54:00,axn,50.20
2023-12-08T11:55:00,axn,49.98
2023-12-08T11:56:00,axn,49.93
2023-12-08T11:57:00,axn,49.80
2023-12-08T11:58:00,axn,51.76
2023-12-08T11:59:00,axn,51.51
2023-12-08T12:00:00,axn,52.13
2023-12-08T12:01:00,axn,51.04
2023-12-08T12:02:00,axn,51.68
2023-12-08T12:03:00,axn,50.39
2023-12-08T12:04:00,axn,49.62
2023-12-08T12:05:00,axn,50.43
2023-12-08T12:06:00,axn,52.40
2023-12-08T12:07:00,axn,51.82
2023-12-08T12:08:00,axn,51.47
2023-12-08T12:09:00,axn,51.09
2023-12-08T12:10:00,axn,51.07
2023-12-08T12:11:00,axn,49.20
2023-12-08T12:12:00,axn,51.11
2023-12-08T12:13:00,axn,50.92
2023-12-08T12:14:00,axn,49.15
2023-12-08T12:15:00,axn,64.48
2023-12-08T12:16:00,axn,63.73
2023-12-08T12:17:00,axn,63.53
2023-12-08T12:18:00,axn,66.77
2023-12-08T12:19:00,axn,65.93
2023-12-08T12:20:00,axn,65.65
2023-12-08T12:21:00,axn,54.51
2023-12-08T12:22:00,axn,52.39
2023-12-08T12:23:00,axn,51.19
2023-12-08T12:24:00,axn,50.38
2023-12-08T12:25:00,axn,50.69
2023-12-08T12:26:00,axn,50.10
2023-12-08T12:27:00,axn,49.61
2023-12-08T12:28:00,axn,50.91
2023-12-08T12:29:00,axn,50.64
2023-12-08T12:30:00,axn,51.80
2023-12-08T12:31:00,axn,50.72
2023-12-08T12:32:00,axn,52.22
2023-12-08T12:33:00,axn,51.19
2023-12-08T12:34:00,axn,50.76
2023-12-08T12:35:00,axn,49.73
2023-12-08T12:36:00,axn,49.82
2023-12-08T12:37:00,axn,51.76
2023-12-08T12:38:00,axn,51.09
2023-12-08T12:39:00,axn,51.21
2023-12-08T12:40:00,axn,50.82
2023-12-08T12:41:00,axn,50.49
2023-12-08T12:42:00,axn,48.60
2023-12-08T12:43:00,axn,51.82
2023-12-08T12:44:00,axn,50.00
2023-12-08T12:45:00,axn,51.56
2023-12-08T12:46:00,axn,51.50
2023-12-08T12:47:00,axn,49.78
2023-12-08T12:48:00,axn,50.22
2023-12-08T12:49:00,axn,73.57
2023-12-08T12:50:00,axn,61.69
2023-12-08T12:51:00,axn,59.33
2023-12-08T12:52:00,axn,77.38
2023-12-08T12:53:00,axn,61.35
2023-12-08T12:54:00,axn,49.85
2023-12-08T12:55:00,axn,50.58
2023-12-08T12:56:00,axn,49.92
2023-12-08T12:57:00,axn,51.47
2023-12-08T12:58:00,axn,52.67
2023-12-08T12:59:00,axn,52.45
2023-12-08T13:00:00,axn,50.74
2023-12-08T13:01:00,axn,52.57
2023-12-08T13:02:00,axn,51.74
2023-12-08T13:03:00,axn,56.08
2023-12-08T13:04:00,axn,55.48
2023-12-08T13:05:00,axn,56.07
2023-12-08T13:06:00,axn,52.66
2023-12-08T13:07:00,axn,53.02
2023-12-08T13:08:00,axn,52.42
2023-12-08T13:09:00,axn,49.52
2023-12-08T13:10:00,axn,49.48
2023-12-08T13:11:00,axn,50.90
2023-12-08T13:12:00,axn,50.13
2023-12-08T13:13:00,axn,50.87
2023-12-08T13:14:00,axn,50.74
2023-12-08T13:15:00,axn,52.86
2023-12-08T13:16:00,axn,53.09
2023-12-08T13:17:00,axn,50.84
2023-12-08T13:18:00,axn,50.96